Погода в Горячем Ключе

Россия / Иркутская область     52°16′33″N   104°54′32″E
темп.,
°C
ветер,
м/с
пор.,
м/с
влажн.,
%
обл.,
%
осадки,
мм/ч
давл.,
гПа
погр.,
м
17 октября, вс
вс1723:00−1з1137100 0.0 102910
02:00−2з113971 0.0 102811
05:00−3з214688 0.0 102814
08:00−4з286071 0.0 1029174
11:00−1зсз3777100 0.1 1029393
14:00+2зсз476891 0.1 1028825
17:00+2зсз477492 0.1 1028783
20:00−3зсз26955 0.1 1031104
18 октября, пн
пн1823:00−4юз11955 0.0 103210
02:00−5юз11955 0.0 103310
05:00−5всв119158 0.0 103210
08:00−5в11865 0.0 103211
11:00+3юв12460 0.0 1030457
14:00+7ююв12373 0.0 1027872
17:00+4ююв11565 0.0 102711
20:00−2вюв11795 0.0 102910
19 октября, вт
вт1923:00−3вюв11792 0.0 103010
02:00−3вюв11784 0.0 102910
05:00−3вюв11783 0.0 102910
08:00−3ююв00805 0.0 103010
11:00+4з22655 0.0 1028470
14:00+6зсз23544 0.0 1027718
17:00+4сз24672 0.0 102793
20:00−1с008744 0.0 103010
20 октября, ср
ср2023:00−2юз00875 0.0 103110
02:00−2зсз008716 0.0 103110
05:00−2в118470 0.0 103110
08:00−2ссв007744 0.0 103110
11:00+5сз11495 0.0 1030409
14:00+7сз22445 0.0 1028782
17:00+4ссз11595 0.0 102817
20:000в11755 0.0 102910
21 октября, чт
чт2123:000вюв11745 0.0 102910
02:00−1вюв11735 0.0 102810
05:00−1вюв21735 0.0 102710
08:00−1вюв22772 0.0 102615
11:00+6вюв23540 0.0 1023358
14:00+9юв23410 0.0 1020645
17:00+6вюв24570 0.0 1020109
20:000вюв22905 0.0 102236